Weather History for Garrison, ND

Change the Weather History Date:

Monday, November 4, 2013

  Actual Average Record
Temperature  
Mean Temperature 34 °F -  
Max Temperature 38 °F 40 °F 66 °F (2001)
Min Temperature 29 °F 21 °F 16 °F (2003)
Degree Days  
Heating Degree Days 31    
Month to date heating degree days 106  
Moisture  
Dew Point 20 °F    
Average Humidity 61    
Maximum Humidity 78    
Minimum Humidity 44    
Precipitation  
Precipitation 0.00 in - - ()
Month to date precipitation 0.01  
Year to date precipitation 28.88  
Sea Level Pressure  
Sea Level Pressure 29.90 in    
Wind  
Wind Speed 18 mph (West)    
Max Wind Speed 30 mph    
Max Gust Speed 39 mph    
Averages and records for this station are not official NWS values.
T = Trace of Precipitation, MM = Missing Value Source: NWS Daily Summary

Daily Weather History Graph

Daily Weather History Graph

Search for Another Location

Airport:

Trip Planner

Search our weather history database for the weather conditions in past years. The results will help you decide how hot, cold, wet, or windy it might be!

Date:

Astronomy

Nov. 04, 2013 Rise Set
Actual Time 7:34 AM CST 5:23 PM CST
Civil Twilight 7:02 AM CST 5:55 PM CST
Nautical Twilight 6:25 AM CST 6:32 PM CST
Astronomical Twilight 5:49 AM CST 7:08 PM CST
Moon 8:52 AM CST (11/4) 6:24 PM CST (11/4)
Length of Visible Light 10h 53m
Length of Day
9h 48m
New Moon, 2% of the Moon is Illuminated
Nov 4
New Moon
Nov 9
First Quarter
Nov 17
Full
Nov 25
Last Quarter
Dec 2
New

Hourly Weather History & Observations

Time (CST) Temp. Windchill Dew Point Humidity Pressure Visibility Wind Dir Wind Speed Gust Speed Precip Events Conditions
12:52 AM 34.0 °F 25.0 °F 27.0 °F 75% 29.72 in - West 12.7 mph - N/A   Unknown
1:52 AM 32.0 °F 23.6 °F 26.1 °F 79% 29.74 in - West 10.4 mph - N/A   Unknown
2:52 AM 34.0 °F 25.5 °F 26.1 °F 73% 29.75 in - West 11.5 mph - N/A   Unknown
3:52 AM 35.1 °F 24.1 °F 25.0 °F 67% 29.75 in - West 19.6 mph 29.9 mph N/A   Unknown
4:52 AM 34.0 °F 22.1 °F 25.0 °F 70% 29.76 in - West 21.9 mph 28.8 mph N/A   Unknown
5:52 AM 33.1 °F 21.5 °F 24.1 °F 70% 29.78 in - WNW 19.6 mph 27.6 mph N/A   Unknown
6:52 AM 33.1 °F 20.9 °F 21.9 °F 64% 29.79 in - WNW 21.9 mph 32.2 mph N/A   Unknown
7:52 AM 32.0 °F 19.2 °F 21.9 °F 66% 29.82 in - West 23.0 mph 35.7 mph N/A   Unknown
8:52 AM 32.0 °F 20.5 °F 21.9 °F 66% 29.85 in - West 18.4 mph 26.5 mph N/A   Unknown
9:52 AM 32.0 °F 19.2 °F 21.0 °F 64% 29.88 in - WNW 23.0 mph 34.5 mph N/A   Unknown
10:52 AM 33.1 °F 22.2 °F 21.0 °F 61% 29.90 in - WNW 17.3 mph 32.2 mph N/A   Unknown
11:52 AM 34.0 °F 21.8 °F 21.0 °F 59% 29.91 in - WNW 23.0 mph 34.5 mph N/A   Unknown
12:52 PM 35.1 °F 22.5 °F 21.0 °F 57% 29.91 in - West 26.5 mph 34.5 mph N/A   Unknown
1:52 PM 37.0 °F 26.2 °F 21.0 °F 52% 29.91 in - West 21.9 mph 33.4 mph N/A   Unknown
2:52 PM 37.0 °F 26.7 °F 18.0 °F 46% 29.92 in - WNW 19.6 mph 29.9 mph N/A   Unknown
3:52 PM 36.0 °F 25.3 °F 17.1 °F 46% 29.94 in - WNW 19.6 mph 32.2 mph N/A   Unknown
4:52 PM 34.0 °F 24.2 °F 16.0 °F 48% 29.96 in - WNW 15.0 mph 27.6 mph N/A   Unknown
5:52 PM 30.0 °F 19.1 °F 16.0 °F 56% 29.99 in - WNW 15.0 mph - N/A   Unknown
6:52 PM 26.1 °F 17.6 °F 16.0 °F 66% 30.03 in - West 8.1 mph - N/A   Unknown
7:52 PM 24.1 °F 16.0 °F 15.1 °F 69% 30.05 in - West 6.9 mph - N/A   Unknown
8:52 PM 25.0 °F 14.8 °F 16.0 °F 69% 30.06 in - West 10.4 mph - N/A   Unknown
9:52 PM 25.0 °F 13.6 °F 16.0 °F 69% 30.08 in - West 12.7 mph - N/A   Unknown
10:52 PM 24.1 °F 14.4 °F 16.0 °F 71% 30.09 in - West 9.2 mph - N/A   Unknown
11:52 PM 23.0 °F 13.9 °F 15.1 °F 72% 30.11 in - WNW 8.1 mph - N/A   Unknown